YAMAL 401

Last updated on Sat Apr 26 2025 00:02:42 GMT+0000 (Coordinated Universal Time)

1 40345U 14082A 25115.47701161 -.00000226 00000+0 00000+0 0 9991 2 40345 0.0148 260.8110 0000409 312.4920 262.1200 1.00271678 37738
UTC large
Height (km)
Speed (km/s)
/
Latitude / Longitude
Inclination (degrees)
Orbital Period (minutes)
Azimuth
Elevation
Range (km)
Doppler Factor

Next 0 passes for location: London (51.5072 / 0.1276)

Sorry there are no passes over London.